Location: Strohbehn Observatory
(42.4649°N, 93.8239°W)
Time: 11:19:25
(UTC-05:00)

SL-16 R/B - Visible Passes

Search period start: 20 September 2017 00:00
Search period end: 30 September 2017 00:00
Orbit: 843 x 846 km, 71.0° (Epoch: 19 September)

Date Brightness Start Highest point End Pass type
(mag) Time Alt. Az. Time Alt. Az. Time Alt. Az.
20 Sep 4.9 00:12:36 10° NNW 00:13:25 14° NNW 00:13:25 14° NNW visible
20 Sep 4.7 22:17:07 10° NNE 22:17:26 10° NNE 22:17:26 10° NNE visible
20 Sep 4.8 23:58:21 10° NNW 23:59:17 15° NNW 23:59:17 15° NNW visible
21 Sep 4.6 22:03:08 10° NNE 22:03:20 10° NNE 22:03:20 10° NNE visible
21 Sep 4.7 23:44:06 10° NNW 23:45:11 16° NNW 23:45:11 16° NNW visible
22 Sep 4.6 23:29:50 10° NNW 23:31:06 17° NNW 23:31:06 17° NNW visible
23 Sep 4.5 23:15:35 10° NNW 23:17:02 18° N 23:17:02 18° N visible
24 Sep 4.4 23:01:20 10° NNW 23:02:59 19° N 23:02:59 19° N visible
25 Sep 4.3 22:47:04 10° NNW 22:48:58 21° N 22:48:58 21° N visible
26 Sep 4.1 22:32:49 10° NNW 22:34:58 22° N 22:34:58 22° N visible
27 Sep 4.0 22:18:34 10° NNW 22:21:00 24° N 22:21:00 24° N visible
28 Sep 3.8 22:04:19 10° NNW 22:07:04 26° N 22:07:04 26° N visible
28 Sep 5.1 23:48:48 10° NW 23:48:55 10° NW 23:48:55 10° NW visible
29 Sep 3.6 21:50:04 10° NNW 21:53:09 29° N 21:53:09 29° N visible
29 Sep 5.0 23:34:29 10° NW 23:35:01 12° NW 23:35:01 12° NW visible
